Printer-friendly version

IAU Minor Planet Center

Minor Planet Center

MPEC 2000-R10: 2000 QL130

The following Minor Planet Electronic Circular may be linked-to from your own Web pages, but must not otherwise be redistributed electronically.


Read MPEC 2000-R09 Read MPEC 2000-R11


M.P.E.C. 2000-R10                                Issued 2000 Sept. 2, 21:37 UT

     The Minor Planet Electronic Circulars contain information on unusual
         minor planets and routine data on comets.  They are published
   on behalf of Commission 20 of the International Astronomical Union by the
          Minor Planet Center, Smithsonian Astrophysical Observatory,
                          Cambridge, MA 02138, U.S.A.

             Prepared using the Tamkin Foundation Computer Network

             BMARSDEN@CFA.HARVARD.EDU or GWILLIAMS@CFA.HARVARD.EDU
          URL http://cfa-www.harvard.edu/iau/mpc.html  ISSN 1523-6714

                                  2000 QL130

Observations:
     K00QD0L* C2000 08 31.30847 23 35 01.65 +01 00 54.7          19.0        704
     K00QD0L  C2000 08 31.32165 23 35 02.52 +01 00 30.7          18.7        704
     K00QD0L  C2000 08 31.33485 23 35 03.50 +01 00 08.2          19.4        704
     K00QD0L  C2000 08 31.34798 23 35 04.37 +00 59 44.5          18.9        704
     K00QD0L  C2000 08 31.36113 23 35 05.27 +00 59 21.8          18.9        704
     K00QD0L  C2000 08 31.97069 23 35 54.11 +00 41 21.7                      557
     K00QD0L  C2000 08 31.97928 23 35 54.76 +00 41 08.1                      557
     K00QD0L  C2000 08 31.98983 23 35 55.47 +00 40 48.9                      557
     K00QD0L  C2000 09 01.25304 23 36 16.77 +00 33 14.8          18.5        704
     K00QD0L  C2000 09 01.25464 23 36 16.83 +00 33 13.4                      711
     K00QD0L  C2000 09 01.26025 23 36 17.21 +00 33 03.9                      711
     K00QD0L  C2000 09 01.26565 23 36 17.57 +00 32 54.0                      711
     K00QD0L  C2000 09 01.26619 23 36 17.65 +00 32 51.7          18.6        704
     K00QD0L  C2000 09 01.27988 23 36 18.56 +00 32 27.4          18.7        704
     K00QD0L  C2000 09 01.28045 23 36 18.64 +00 32 26.9          18.4        704
     K00QD0L  C2000 09 01.29308 23 36 19.45 +00 32 04.4          19.1        704
     K00QD0L  C2000 09 01.29366 23 36 19.47 +00 32 04.1          18.7        704
     K00QD0L  C2000 09 01.30627 23 36 20.30 +00 31 42.1          19.1        704
     K00QD0L  C2000 09 01.30685 23 36 20.37 +00 31 39.7          19.3        704
     K00QD0L  C2000 09 01.86870 23 37 04.05 +00 15 14.1          18.0 R      046
     K00QD0L SC2000 09 01.86972 23 37 04.19 +00 15 13.3                      046
     K00QD0L  C2000 09 01.88133 23 37 04.91 +00 14 50.4                      557
     K00QD0L SC2000 09 01.88676 23 37 05.19 +00 14 41.4                      557
     K00QD0L  C2000 09 02.24746 23 37 32.26 +00 04 22.8                      711
     K00QD0L  C2000 09 02.25306 23 37 32.65 +00 04 13.3                      711
     K00QD0L  C2000 09 02.25840 23 37 32.98 +00 04 03.9                      711

Observer details:
046 Klet.  Observers J. Ticha, M. Tichy, Z. Moravec.  0.57-m f/5.2 reflector
    + CCD.
557 Ondrejov.  Observers P. Pravec, P. Kusnirak, U. Babiakova.  0.65-m f/3.6
    reflector + CCD.
704 Lincoln Laboratory ETS, New Mexico.  Observers M. Blythe, F. Shelly,
    M. Bezpalko, M. Elowitz, R. Huber, L. Manguso.  Measurers J. Stuart,
    R. Sayer, J. B. Evans, H. Viggh.  1.0-m f/2.15 reflector + CCD.
711 McDonald Observatory.  Observers P. J. Shelus, J. A. Shelus.  0.76-m
    reflector + CCD.

Orbital elements:
2000 QL130
Epoch 2000 Aug. 24.0 TT = JDT 2451780.5                 Spahr
M   6.79983              (2000.0)            P               Q
n   0.26651712     Peri.  146.29608     +0.68179375     +0.73079240
a   2.3914023      Node   166.58444     -0.69877196     +0.66399698
e   0.4917322      Incl.    8.21771     -0.21650645     +0.15827342
P   3.70           H   20.1           G   0.15
From 26 observations 2000 Aug. 31-Sept. 2.

Ephemeris:
2000 QL130               a,e,i = 2.39, 0.49, 8                   q = 1.2155
Date    TT    R. A. (2000) Decl.     Delta      r     Elong.  Phase     V
2000 08 24    23 23.74   +04 37.8    0.253    1.247   156.4    19.0    18.6
2000 09 03    23 38.44   -00 17.0    0.273    1.275   165.7    11.2    18.5
2000 09 13    23 48.34   -04 41.0    0.306    1.311   174.1     4.5    18.5
2000 09 23    23 55.04   -08 02.2    0.353    1.353   171.7     6.1    19.0
2000 10 03    00 00.30   -10 10.5    0.414    1.401   163.1    12.0    19.6
2000 10 13    00 05.62   -11 10.6    0.488    1.454   154.6    17.1    20.3
2000 10 23    00 11.80   -11 15.5    0.577    1.510   146.5    21.3    20.8
2000 11 02    00 19.24   -10 38.9    0.679    1.568   138.8    24.6    21.4
2000 11 12    00 28.08   -09 32.6    0.793    1.629   131.6    27.0    21.9

Gareth V. Williams           (C) Copyright 2000 MPC           M.P.E.C. 2000-R10

Read MPEC 2000-R09 Read MPEC 2000-R11


Our Web policy. Index to the CBAT/MPC/ICQ pages.


Valid HTML 4.01!